,,Stat6,,Stat2,,Stat8,,Stat9,,Stat10,,Wind1,,Wind1,
time,status,PA1M_AVG,status,PR1M_SUM,status,RH1M_AVG,status,SR1M_AVG,status,TA1M_AVG,status,W1dAve1m,status,W1sAve1m,
2004-06-15, 00:00:00,VALID,919.292,VALID,0,VALID,99.3416,VALID,-0.0679233,VALID,17.8247,VALID,137,VALID,0.60061,
2004-06-15, 00:01:00,VALID,919.288,VALID,0,VALID,99.6556,VALID,-0.0849042,VALID,17.8372,VALID,136,VALID,0.788132,
2004-06-15, 00:02:00,VALID,919.293,VALID,0,VALID,99.8973,VALID,-0.0339617,VALID,17.9056,VALID,133,VALID,0.799237,
2004-06-15, 00:03:00,VALID,919.305,VALID,0,VALID,99.9565,VALID,-0.0849042,VALID,17.9315,VALID,130,VALID,0.786044,
2004-06-15, 00:04:00,VALID,919.328,VALID,0,VALID,99.8054,VALID,-0.0849042,VALID,17.9472,VALID,130,VALID,0.399528,
2004-06-15, 00:05:00,VALID,919.339,VALID,0,VALID,99.3123,VALID,-0.0849042,VALID,17.8957,VALID,130,VALID,0.465402,
2004-06-15, 00:06:00,VALID,919.337,VALID,0,VALID,99.5272,VALID,-0.0679233,VALID,17.8471,VALID,130,VALID,0.584985,
2004-06-15, 00:07:00,VALID,919.344,VALID,0,VALID,99.9341,VALID,-0.101885,VALID,17.9052,VALID,130,VALID,0.553354,
2004-06-15, 00:08:00,VALID,919.32,VALID,0,VALID,99.4357,VALID,-0.0679233,VALID,17.8826,VALID,130,VALID,0.392113,
2004-06-15, 00:09:00,VALID,919.306,VALID,0,VALID,98.6015,VALID,-0.0509425,VALID,17.7344,VALID,130,VALID,0.105208,
2004-06-15, 00:10:00,VALID,919.305,VALID,0,VALID,98.4807,VALID,-0.0849042,VALID,17.6212,VALID,130,VALID,0,
2004-06-15, 00:11:00,VALID,919.3,VALID,0,VALID,98.7337,VALID,-0.0339617,VALID,17.5954,VALID,130,VALID,0,
2004-06-15, 00:12:00,VALID,919.291,VALID,0,VALID,98.7363,VALID,-0.0169808,VALID,17.5792,VALID,130,VALID,0.286005,
2004-06-15, 00:13:00,VALID,919.292,VALID,0,VALID,97.9352,VALID,-0.0169808,VALID,17.4598,VALID,81,VALID,0.654797,
2004-06-15, 00:14:00,VALID,919.288,VALID,0,VALID,98.1412,VALID,-0.0509425,VALID,17.3852,VALID,67,VALID,0.635121,
2004-06-15, 00:15:00,VALID,919.285,VALID,0,VALID,98.1844,VALID,0,VALID,17.3729,VALID,66,VALID,0.940163,
2004-06-15, 00:16:00,VALID,919.303,VALID,0,VALID,98.8189,VALID,-0.0679233,VALID,17.3791,VALID,63,VALID,1.11937,
2004-06-15, 00:17:00,VALID,919.305,VALID,0,VALID,100,VALID,-0.0679233,VALID,17.5857,VALID,87,VALID,1.08668,
2004-06-15, 00:18:00,VALID,919.325,VALID,0,VALID,100,VALID,-0.0509425,VALID,17.8247,VALID,96,VALID,0.970238,
2004-06-15, 00:19:00,VALID,919.329,VALID,0,VALID,100,VALID,-0.0509425,VALID,17.9439,VALID,100,VALID,0.775254,
2004-06-15, 00:20:00,VALID,919.336,VALID,0,VALID,99.8278,VALID,-0.0169808,VALID,17.9312,VALID,100,VALID,0.298328,
2004-06-15, 00:21:00,VALID,919.337,VALID,0,VALID,98.9601,VALID,-0.0679233,VALID,17.8148,VALID,100,VALID,0.359738,
2004-06-15, 00:22:00,VALID,919.333,VALID,0,VALID,98.5366,VALID,-0.0509425,VALID,17.7247,VALID,103,VALID,0.577734,
2004-06-15, 00:23:00,VALID,919.316,VALID,0,VALID,98.7604,VALID,-0.0679233,VALID,17.6825,VALID,104,VALID,0.705433,
2004-06-15, 00:24:00,VALID,919.306,VALID,0,VALID,98.8978,VALID,-0.0509425,VALID,17.6827,VALID,104,VALID,0.547433,
2004-06-15, 00:25:00,VALID,919.312,VALID,0,VALID,97.9123,VALID,-0.0339617,VALID,17.531,VALID,104,VALID,0.20149,
2004-06-15, 00:26:00,VALID,919.327,VALID,0,VALID,97.6974,VALID,-0.0169808,VALID,17.4017,VALID,104,VALID,0.217949,
2004-06-15, 00:27:00,VALID,919.342,VALID,0,VALID,98.2302,VALID,-0.0509425,VALID,17.3791,VALID,104,VALID,0.183239,
2004-06-15, 00:28:00,VALID,919.354,VALID,0,VALID,98.5913,VALID,-0.0169808,VALID,17.3729,VALID,104,VALID,0.136814,
2004-06-15, 00:29:00,VALID,919.352,VALID,0,VALID,98.796,VALID,-0.0169808,VALID,17.3761,VALID,104,VALID,0.00175781,
2004-06-15, 00:30:00,VALID,919.338,VALID,0,VALID,99.1152,VALID,-0.0339617,VALID,17.4056,VALID,104,VALID,0,
2004-06-15, 00:31:00,VALID,919.349,VALID,0,VALID,99.4738,VALID,-0.0509425,VALID,17.4473,VALID,104,VALID,0,
2004-06-15, 00:32:00,VALID,919.341,VALID,0,VALID,99.5285,VALID,-0.0339617,VALID,17.4766,VALID,104,VALID,0.115234,
2004-06-15, 00:33:00,VALID,919.336,VALID,0,VALID,99.793,VALID,-0.0679233,VALID,17.5022,VALID,104,VALID,0.353906,
2004-06-15, 00:34:00,VALID,919.32,VALID,0,VALID,99.3149,VALID,-0.0679233,VALID,17.4928,VALID,104,VALID,0.173018,
2004-06-15, 00:35:00,VALID,919.303,VALID,0,VALID,99.1483,VALID,-0.0679233,VALID,17.4144,VALID,104,VALID,0,
2004-06-15, 00:36:00,VALID,919.289,VALID,0,VALID,99.409,VALID,0.0509425,VALID,17.4071,VALID,104,VALID,0,
2004-06-15, 00:37:00,VALID,919.275,VALID,0,VALID,99.0516,VALID,0.0679233,VALID,17.3621,VALID,104,VALID,0,
2004-06-15, 00:38:00,VALID,919.273,VALID,0,VALID,98.3268,VALID,0.0169808,VALID,17.2236,VALID,104,VALID,0,
2004-06-15, 00:39:00,VALID,919.252,VALID,0,VALID,98.1819,VALID,0,VALID,17.1363,VALID,104,VALID,0,
2004-06-15, 00:40:00,VALID,919.225,VALID,0,VALID,98.6066,VALID,0.0169808,VALID,17.1332,VALID,104,VALID,0,
2004-06-15, 00:41:00,VALID,919.203,VALID,0,VALID,99.3047,VALID,0.0339617,VALID,17.201,VALID,104,VALID,0.0808503,
2004-06-15, 00:42:00,VALID,919.155,VALID,0,VALID,99.3568,VALID,0.0679233,VALID,17.2457,VALID,104,VALID,0.371449,
2004-06-15, 00:43:00,VALID,919.12,VALID,0,VALID,99.0656,VALID,0.0339617,VALID,17.2397,VALID,104,VALID,0.511347,
2004-06-15, 00:44:00,VALID,919.067,VALID,0,VALID,99.0059,VALID,0,VALID,17.1978,VALID,104,VALID,0.456659,
2004-06-15, 00:45:00,VALID,919.035,VALID,0,VALID,98.3014,VALID,0.0169808,VALID,17.0687,VALID,83,VALID,0.493521,
2004-06-15, 00:46:00,VALID,919.04,VALID,0,VALID,97.8932,VALID,0.0169808,VALID,16.9272,VALID,63,VALID,0.245536,
2004-06-15, 00:47:00,VALID,919.034,VALID,0,VALID,98.4451,VALID,0,VALID,16.9239,VALID,63,VALID,0.0528846,
2004-06-15, 00:48:00,VALID,919.015,VALID,0,VALID,99.2704,VALID,-0.0509425,VALID,17.0472,VALID,63,VALID,0.254764,
2004-06-15, 00:49:00,VALID,919.01,VALID,0,VALID,99.7981,VALID,-0.0509425,VALID,17.1892,VALID,63,VALID,0.308239,
2004-06-15, 00:50:00,VALID,919.005,VALID,0,VALID,99.1318,VALID,-0.0509425,VALID,17.141,VALID,63,VALID,0.257994,
2004-06-15, 00:51:00,VALID,919.008,VALID,0,VALID,99.6798,VALID,-0.0509425,VALID,17.2088,VALID,63,VALID,0.0643682,
2004-06-15, 00:52:00,VALID,919,VALID,0,VALID,99.8197,VALID,-0.101885,VALID,17.3064,VALID,63,VALID,0,
2004-06-15, 00:53:00,VALID,918.992,VALID,0,VALID,99.8337,VALID,-0.0679233,VALID,17.3247,VALID,63,VALID,0.167151,
2004-06-15, 00:54:00,VALID,918.996,VALID,0,VALID,99.6417,VALID,-0.0339617,VALID,17.3316,VALID,63,VALID,0.247337,
2004-06-15, 00:55:00,VALID,918.988,VALID,0,VALID,99.7141,VALID,-0.0509425,VALID,17.3736,VALID,63,VALID,0.167515,
2004-06-15, 00:56:00,VALID,918.988,VALID,0,VALID,99.8423,VALID,-0.0679233,VALID,17.403,VALID,63,VALID,0.0225291,
2004-06-15, 00:57:00,VALID,918.962,VALID,0,VALID,99.999,VALID,-0.0169808,VALID,17.4572,VALID,63,VALID,0,
2004-06-15, 00:58:00,VALID,918.955,VALID,0,VALID,100,VALID,-0.0679233,VALID,17.5029,VALID,63,VALID,0,
2004-06-15, 00:59:00,VALID,918.958,VALID,0,VALID,99.9494,VALID,-0.101885,VALID,17.5222,VALID,63,VALID,0,
2004-06-15, 01:00:00,VALID,918.957,VALID,0,VALID,99.9392,VALID,-0.0849042,VALID,17.5416,VALID,63,VALID,0,
2004-06-15, 01:01:00,VALID,918.969,VALID,0,VALID,99.8655,VALID,-0.0849042,VALID,17.5741,VALID,63,VALID,0,
2004-06-15, 01:02:00,VALID,918.961,VALID,0,VALID,99.9621,VALID,-0.0849042,VALID,17.6156,VALID,63,VALID,0,
2004-06-15, 01:03:00,VALID,918.949,VALID,0,VALID,99.882,VALID,-0.0679233,VALID,17.6417,VALID,63,VALID,0.0777778,
2004-06-15, 01:04:00,VALID,918.932,VALID,0,VALID,99.8057,VALID,-0.0679233,VALID,17.6739,VALID,63,VALID,0.355097,
2004-06-15, 01:05:00,VALID,918.92,VALID,0,VALID,99.2157,VALID,-0.0679233,VALID,17.6442,VALID,63,VALID,0.440518,
2004-06-15, 01:06:00,VALID,918.907,VALID,0,VALID,98.1539,VALID,0,VALID,17.5246,VALID,63,VALID,0.362233,
2004-06-15, 01:07:00,VALID,918.91,VALID,0,VALID,97.9275,VALID,0.0169808,VALID,17.4172,VALID,63,VALID,0.281059,
2004-06-15, 01:08:00,VALID,918.882,VALID,0,VALID,98.3497,VALID,0.0509425,VALID,17.4405,VALID,63,VALID,0.193274,
2004-06-15, 01:09:00,VALID,918.859,VALID,0,VALID,98.4425,VALID,0.0339617,VALID,17.4497,VALID,63,VALID,0,
2004-06-15, 01:10:00,VALID,918.849,VALID,0,VALID,98.6435,VALID,0.0339617,VALID,17.4854,VALID,63,VALID,0.0263445,
2004-06-15, 01:11:00,VALID,918.822,VALID,0,VALID,98.8113,VALID,0.0509425,VALID,17.5175,VALID,63,VALID,0.341797,
2004-06-15, 01:12:00,VALID,918.805,VALID,0,VALID,98.3535,VALID,0,VALID,17.5495,VALID,63,VALID,0.35404,
2004-06-15, 01:13:00,VALID,918.796,VALID,0,VALID,97.4698,VALID,0.0169808,VALID,17.4981,VALID,63,VALID,0.218555,
2004-06-15, 01:14:00,VALID,918.794,VALID,0,VALID,97.2371,VALID,0.0339617,VALID,17.4405,VALID,63,VALID,0.264172,
2004-06-15, 01:15:00,VALID,918.788,VALID,0,VALID,97.555,VALID,0.0169808,VALID,17.4211,VALID,63,VALID,0.399554,
2004-06-15, 01:16:00,VALID,918.813,VALID,0,VALID,97.6325,VALID,0.0509425,VALID,17.4275,VALID,63,VALID,0.411523,
2004-06-15, 01:17:00,VALID,918.816,VALID,0,VALID,97.6707,VALID,0.0509425,VALID,17.446,VALID,63,VALID,0.481517,
2004-06-15, 01:18:00,VALID,918.807,VALID,0,VALID,97.5893,VALID,0.0339617,VALID,17.4564,VALID,63,VALID,0.503162,
2004-06-15, 01:19:00,VALID,918.799,VALID,0,VALID,97.7444,VALID,0,VALID,17.5084,VALID,63,VALID,0.44401,
2004-06-15, 01:20:00,VALID,918.784,VALID,0,VALID,97.6554,VALID,0.0339617,VALID,17.5728,VALID,63,VALID,0.423692,
2004-06-15, 01:21:00,VALID,918.796,VALID,0,VALID,97.3312,VALID,0.0509425,VALID,17.5947,VALID,63,VALID,0.439808,
2004-06-15, 01:22:00,VALID,918.775,VALID,0,VALID,96.6992,VALID,0.0509425,VALID,17.608,VALID,63,VALID,0.157885,
2004-06-15, 01:23:00,VALID,918.76,VALID,0,VALID,96.263,VALID,0.0679233,VALID,17.5467,VALID,63,VALID,0,
2004-06-15, 01:24:00,VALID,918.731,VALID,0,VALID,96.6801,VALID,0.0339617,VALID,17.5041,VALID,63,VALID,0,
2004-06-15, 01:25:00,VALID,918.699,VALID,0,VALID,97.1544,VALID,0.0339617,VALID,17.534,VALID,63,VALID,0,
2004-06-15, 01:26:00,VALID,918.671,VALID,0,VALID,96.9522,VALID,0,VALID,17.5536,VALID,65,VALID,0.194425,
2004-06-15, 01:27:00,VALID,918.656,VALID,0,VALID,96.1053,VALID,0.0339617,VALID,17.5147,VALID,108,VALID,0.573552,
2004-06-15, 01:28:00,VALID,918.643,VALID,0,VALID,95.8154,VALID,0,VALID,17.4142,VALID,109,VALID,0.550781,
2004-06-15, 01:29:00,VALID,918.641,VALID,0,VALID,96.4677,VALID,0.0509425,VALID,17.3436,VALID,109,VALID,0.647675,
2004-06-15, 01:30:00,VALID,918.629,VALID,0,VALID,97.0272,VALID,0.0169808,VALID,17.3213,VALID,122,VALID,0.858994,
2004-06-15, 01:31:00,VALID,918.634,VALID,0,VALID,96.7882,VALID,0.0169808,VALID,17.2696,VALID,124,VALID,0.857422,
2004-06-15, 01:32:00,VALID,918.633,VALID,0,VALID,96.9001,VALID,0,VALID,17.2242,VALID,124,VALID,0.7004,
2004-06-15, 01:33:00,VALID,918.629,VALID,0,VALID,97.2536,VALID,0.0339617,VALID,17.192,VALID,138,VALID,0.598544,
2004-06-15, 01:34:00,VALID,918.621,VALID,0,VALID,97.7279,VALID,0.0509425,VALID,17.2051,VALID,139,VALID,0.409028,
2004-06-15, 01:35:00,VALID,918.612,VALID,0,VALID,97.9581,VALID,0,VALID,17.2176,VALID,139,VALID,0.394444,
2004-06-15, 01:36:00,VALID,918.62,VALID,0,VALID,98.234,VALID,-0.0679233,VALID,17.2544,VALID,139,VALID,0.145064,
2004-06-15, 01:37:00,VALID,918.616,VALID,0,VALID,98.379,VALID,-0.0679233,VALID,17.306,VALID,139,VALID,0.191406,
2004-06-15, 01:38:00,VALID,918.608,VALID,0,VALID,98.281,VALID,-0.0339617,VALID,17.3348,VALID,139,VALID,0.252663,
2004-06-15, 01:39:00,VALID,918.586,VALID,0,VALID,98.1526,VALID,-0.0849042,VALID,17.3699,VALID,139,VALID,0.439648,
2004-06-15, 01:40:00,VALID,918.566,VALID,0,VALID,97.8779,VALID,-0.0679233,VALID,17.4028,VALID,139,VALID,0.542039,
2004-06-15, 01:41:00,VALID,918.557,VALID,0,VALID,97.3426,VALID,-0.0169808,VALID,17.3673,VALID,139,VALID,0.661328,
2004-06-15, 01:42:00,VALID,918.535,VALID,0,VALID,97.2612,VALID,-0.0509425,VALID,17.3351,VALID,139,VALID,0.751776,
2004-06-15, 01:43:00,VALID,918.528,VALID,0,VALID,97.012,VALID,-0.0339617,VALID,17.261,VALID,139,VALID,0.676314,
2004-06-15, 01:44:00,VALID,918.515,VALID,0,VALID,96.7717,VALID,-0.0339617,VALID,17.1834,VALID,138,VALID,0.689862,
2004-06-15, 01:45:00,VALID,918.518,VALID,0,VALID,96.9141,VALID,-0.0339617,VALID,17.096,VALID,137,VALID,0.895433,
2004-06-15, 01:46:00,VALID,918.52,VALID,0,VALID,97.4507,VALID,-0.0509425,VALID,17.0668,VALID,136,VALID,1.03161,
2004-06-15, 01:47:00,VALID,918.522,VALID,0,VALID,97.7495,VALID,-0.0679233,VALID,17.0775,VALID,135,VALID,0.857195,
2004-06-15, 01:48:00,VALID,918.517,VALID,0,VALID,98.1844,VALID,-0.0679233,VALID,17.0573,VALID,132,VALID,0.788318,
2004-06-15, 01:49:00,VALID,918.524,VALID,0,VALID,98.5532,VALID,-0.0679233,VALID,17.0767,VALID,133,VALID,0.520167,
2004-06-15, 01:50:00,VALID,918.515,VALID,0,VALID,98.7655,VALID,-0.0169808,VALID,17.1025,VALID,133,VALID,0.622456,
2004-06-15, 01:51:00,VALID,918.525,VALID,0,VALID,98.8278,VALID,-0.0169808,VALID,17.1089,VALID,133,VALID,0.699219,
2004-06-15, 01:52:00,VALID,918.523,VALID,0,VALID,99.0059,VALID,-0.0679233,VALID,17.1384,VALID,133,VALID,0.632254,
2004-06-15, 01:53:00,VALID,918.521,VALID,0,VALID,98.8774,VALID,-0.0509425,VALID,17.132,VALID,133,VALID,0.578658,
2004-06-15, 01:54:00,VALID,918.509,VALID,0,VALID,98.9868,VALID,-0.0339617,VALID,17.1089,VALID,133,VALID,0.537157,
2004-06-15, 01:55:00,VALID,918.506,VALID,0,VALID,99.2182,VALID,-0.0509425,VALID,17.1251,VALID,133,VALID,0.408975,
2004-06-15, 01:56:00,VALID,918.493,VALID,0,VALID,99.147,VALID,-0.0679233,VALID,17.1156,VALID,133,VALID,0.255952,
2004-06-15, 01:57:00,VALID,918.487,VALID,0,VALID,99.3594,VALID,-0.0339617,VALID,17.1382,VALID,133,VALID,0.098544,
2004-06-15, 01:58:00,VALID,918.48,VALID,0,VALID,99.3886,VALID,-0.0509425,VALID,17.1804,VALID,133,VALID,0,
2004-06-15, 01:59:00,VALID,918.461,VALID,0,VALID,99.3034,VALID,-0.0509425,VALID,17.1928,VALID,133,VALID,0.0398247,
2004-06-15, 02:00:00,VALID,918.445,VALID,0,VALID,99.3695,VALID,-0.0679233,VALID,17.2481,VALID,133,VALID,0.00208333,
2004-06-15, 02:01:00,VALID,918.427,VALID,0,VALID,99.2958,VALID,-0.101885,VALID,17.3258,VALID,133,VALID,0.244318,
2004-06-15, 02:02:00,VALID,918.416,VALID,0,VALID,98.2264,VALID,-0.0679233,VALID,17.3288,VALID,133,VALID,0.693714,
2004-06-15, 02:03:00,VALID,918.428,VALID,0,VALID,97.7419,VALID,-0.101885,VALID,17.2582,VALID,133,VALID,0.746995,
2004-06-15, 02:04:00,VALID,918.421,VALID,0,VALID,97.7902,VALID,-0.0849042,VALID,17.2126,VALID,133,VALID,0.657203,
2004-06-15, 02:05:00,VALID,918.425,VALID,0,VALID,97.7343,VALID,-0.101885,VALID,17.1771,VALID,133,VALID,0.56179,
2004-06-15, 02:06:00,VALID,918.424,VALID,0,VALID,97.9517,VALID,-0.0509425,VALID,17.1548,VALID,133,VALID,0.709077,
2004-06-15, 02:07:00,VALID,918.429,VALID,0,VALID,98.0229,VALID,-0.0849042,VALID,17.1382,VALID,132,VALID,0.60332,
2004-06-15, 02:08:00,VALID,918.416,VALID,0,VALID,98.0522,VALID,-0.0339617,VALID,17.1285,VALID,132,VALID,0.495066,
2004-06-15, 02:09:00,VALID,918.413,VALID,0,VALID,98.1615,VALID,-0.0679233,VALID,17.1345,VALID,132,VALID,0.387847,
2004-06-15, 02:10:00,VALID,918.418,VALID,0,VALID,98.1068,VALID,-0.0509425,VALID,17.1378,VALID,132,VALID,0.165206,
2004-06-15, 02:11:00,VALID,918.404,VALID,0,VALID,98.571,VALID,-0.0679233,VALID,17.1642,VALID,132,VALID,0,
2004-06-15, 02:12:00,VALID,918.403,VALID,0,VALID,98.9779,VALID,-0.0849042,VALID,17.2316,VALID,132,VALID,0,
2004-06-15, 02:13:00,VALID,918.387,VALID,0,VALID,98.9982,VALID,-0.0679233,VALID,17.3323,VALID,132,VALID,0,
2004-06-15, 02:14:00,VALID,918.382,VALID,0,VALID,98.4642,VALID,-0.0849042,VALID,17.3839,VALID,132,VALID,0,
2004-06-15, 02:15:00,VALID,918.392,VALID,0,VALID,97.4609,VALID,-0.0849042,VALID,17.3609,VALID,132,VALID,0,
2004-06-15, 02:16:00,VALID,918.368,VALID,0,VALID,97.4151,VALID,-0.0339617,VALID,17.2965,VALID,132,VALID,0.276486,
2004-06-15, 02:17:00,VALID,918.371,VALID,0,VALID,97.8856,VALID,-0.0509425,VALID,17.2802,VALID,132,VALID,0.511719,
2004-06-15, 02:18:00,VALID,918.334,VALID,0,VALID,97.9123,VALID,-0.0509425,VALID,17.2542,VALID,132,VALID,0.783612,
2004-06-15, 02:19:00,VALID,918.313,VALID,0,VALID,97.457,VALID,-0.0339617,VALID,17.1771,VALID,132,VALID,0.915972,
2004-06-15, 02:20:00,VALID,918.3,VALID,0,VALID,97.4481,VALID,-0.0679233,VALID,17.0997,VALID,132,VALID,0.756541,
2004-06-15, 02:21:00,VALID,918.298,VALID,0,VALID,97.8716,VALID,-0.0509425,VALID,17.0483,VALID,132,VALID,0.723684,
2004-06-15, 02:22:00,VALID,918.278,VALID,0,VALID,98.3472,VALID,-0.0849042,VALID,17.0418,VALID,132,VALID,0.763338,
2004-06-15, 02:23:00,VALID,918.27,VALID,0,VALID,98.2225,VALID,-0.0679233,VALID,17.0388,VALID,132,VALID,0.618229,
2004-06-15, 02:24:00,VALID,918.243,VALID,0,VALID,98.6625,VALID,-0.0849042,VALID,17.0224,VALID,132,VALID,0.398619,
2004-06-15, 02:25:00,VALID,918.244,VALID,0,VALID,98.9003,VALID,-0.0509425,VALID,17.0676,VALID,132,VALID,0.306076,
2004-06-15, 02:26:00,VALID,918.236,VALID,0,VALID,98.8571,VALID,-0.0849042,VALID,17.0674,VALID,132,VALID,0.329823,
2004-06-15, 02:27:00,VALID,918.249,VALID,0,VALID,99.2386,VALID,-0.0509425,VALID,17.113,VALID,132,VALID,0.546354,
2004-06-15, 02:28:00,VALID,918.263,VALID,0,VALID,99.4484,VALID,-0.0339617,VALID,17.1935,VALID,132,VALID,0.642578,
2004-06-15, 02:29:00,VALID,918.269,VALID,0,VALID,98.8825,VALID,-0.0339617,VALID,17.2161,VALID,132,VALID,0.257643,
2004-06-15, 02:30:00,VALID,918.276,VALID,0,VALID,98.2518,VALID,-0.0339617,VALID,17.1449,VALID,132,VALID,0,
2004-06-15, 02:31:00,VALID,918.264,VALID,0,VALID,98.6867,VALID,-0.0849042,VALID,17.1253,VALID,132,VALID,0,
2004-06-15, 02:32:00,VALID,918.266,VALID,0,VALID,99.2793,VALID,-0.0339617,VALID,17.2027,VALID,132,VALID,0,
2004-06-15, 02:33:00,VALID,918.267,VALID,0,VALID,99.2068,VALID,-0.0679233,VALID,17.2382,VALID,115,VALID,0.39375,
2004-06-15, 02:34:00,VALID,918.265,VALID,0,VALID,98.5455,VALID,-0.0339617,VALID,17.1797,VALID,68,VALID,0.625762,
2004-06-15, 02:35:00,VALID,918.26,VALID,0,VALID,98.3599,VALID,-0.0509425,VALID,17.1091,VALID,68,VALID,0.443004,
2004-06-15, 02:36:00,VALID,918.252,VALID,0,VALID,98.8139,VALID,0,VALID,17.1186,VALID,68,VALID,0.430778,
2004-06-15, 02:37:00,VALID,918.242,VALID,0,VALID,98.8304,VALID,-0.0169808,VALID,17.1158,VALID,68,VALID,0.377858,
2004-06-15, 02:38:00,VALID,918.248,VALID,0,VALID,99.0466,VALID,-0.0339617,VALID,17.1186,VALID,68,VALID,0.129192,
2004-06-15, 02:39:00,VALID,918.25,VALID,0,VALID,99.4725,VALID,0.0169808,VALID,17.1933,VALID,68,VALID,0,
2004-06-15, 02:40:00,VALID,918.25,VALID,0,VALID,99.676,VALID,0,VALID,17.274,VALID,68,VALID,0.0685369,
2004-06-15, 02:41:00,VALID,918.26,VALID,0,VALID,99.6302,VALID,0,VALID,17.3316,VALID,68,VALID,0,
2004-06-15, 02:42:00,VALID,918.252,VALID,0,VALID,99.3848,VALID,0,VALID,17.3609,VALID,68,VALID,0.0479911,
2004-06-15, 02:43:00,VALID,918.215,VALID,0,VALID,99.2258,VALID,0,VALID,17.3996,VALID,68,VALID,0.358398,
2004-06-15, 02:44:00,VALID,918.206,VALID,0,VALID,98.2442,VALID,0,VALID,17.2963,VALID,68,VALID,0.362165,
2004-06-15, 02:45:00,VALID,918.197,VALID,0,VALID,98.2416,VALID,0,VALID,17.2318,VALID,68,VALID,0.123698,
2004-06-15, 02:46:00,VALID,918.192,VALID,0,VALID,98.6447,VALID,-0.0169808,VALID,17.2509,VALID,68,VALID,0,
2004-06-15, 02:47:00,VALID,918.194,VALID,0,VALID,99.2119,VALID,-0.0169808,VALID,17.309,VALID,68,VALID,0,
2004-06-15, 02:48:00,VALID,918.189,VALID,0,VALID,99.6811,VALID,0,VALID,17.416,VALID,68,VALID,0.0345486,
2004-06-15, 02:49:00,VALID,918.181,VALID,0,VALID,99.5488,VALID,0,VALID,17.4966,VALID,68,VALID,0.0335366,
2004-06-15, 02:50:00,VALID,918.156,VALID,0,VALID,99.0453,VALID,0.0169808,VALID,17.5252,VALID,68,VALID,0,
2004-06-15, 02:51:00,VALID,918.112,VALID,0,VALID,98.3879,VALID,-0.0169808,VALID,17.516,VALID,68,VALID,0,
2004-06-15, 02:52:00,VALID,918.085,VALID,0,VALID,98.4794,VALID,-0.0169808,VALID,17.516,VALID,68,VALID,0,
2004-06-15, 02:53:00,VALID,918.064,VALID,0,VALID,98.585,VALID,0,VALID,17.5607,VALID,68,VALID,0,
2004-06-15, 02:54:00,VALID,918.052,VALID,0,VALID,98.4591,VALID,0,VALID,17.6124,VALID,68,VALID,0.0855655,
2004-06-15, 02:55:00,VALID,918.042,VALID,0,VALID,97.4876,VALID,0,VALID,17.5967,VALID,65,VALID,0.66311,
2004-06-15, 02:56:00,VALID,918.051,VALID,0,VALID,95.1605,VALID,-0.0169808,VALID,17.3445,VALID,62,VALID,0.744496,
2004-06-15, 02:57:00,VALID,918.06,VALID,0,VALID,95.7938,VALID,0,VALID,17.17,VALID,62,VALID,0.498547,
2004-06-15, 02:58:00,VALID,918.063,VALID,0,VALID,97.0539,VALID,0,VALID,17.1698,VALID,62,VALID,0.136623,
2004-06-15, 02:59:00,VALID,918.059,VALID,0,VALID,97.5944,VALID,0.0169808,VALID,17.1698,VALID,62,VALID,0.0229167,
2004-06-15, 03:00:00,VALID,918.051,VALID,0,VALID,98.3319,VALID,0.0339617,VALID,17.2182,VALID,62,VALID,0.15516,
2004-06-15, 03:01:00,VALID,918.046,VALID,0,VALID,98.1768,VALID,0.0169808,VALID,17.218,VALID,62,VALID,0.192406,
2004-06-15, 03:02:00,VALID,918.031,VALID,0,VALID,98.0979,VALID,0.0339617,VALID,17.2051,VALID,62,VALID,0.00213068,
2004-06-15, 03:03:00,VALID,917.998,VALID,0,VALID,98.3751,VALID,0.0169808,VALID,17.2122,VALID,62,VALID,0,
2004-06-15, 03:04:00,VALID,918.003,VALID,0,VALID,98.9537,VALID,0.0169808,VALID,17.28,VALID,62,VALID,0.0192454,
2004-06-15, 03:05:00,VALID,917.991,VALID,0,VALID,98.5659,VALID,0.0169808,VALID,17.3312,VALID,62,VALID,0.591992,
2004-06-15, 03:06:00,VALID,917.976,VALID,0,VALID,98.4743,VALID,0.0169808,VALID,17.3574,VALID,62,VALID,0.422045,
2004-06-15, 03:07:00,VALID,917.95,VALID,0,VALID,97.9212,VALID,0.0339617,VALID,17.3606,VALID,62,VALID,0.255996,
2004-06-15, 03:08:00,VALID,917.938,VALID,0,VALID,97.8131,VALID,0.0169808,VALID,17.3348,VALID,62,VALID,0.569754,
2004-06-15, 03:09:00,VALID,917.929,VALID,0,VALID,97.3909,VALID,0.0169808,VALID,17.312,VALID,62,VALID,0.621911,
2004-06-15, 03:10:00,VALID,917.945,VALID,0,VALID,97.0539,VALID,0.0169808,VALID,17.2378,VALID,62,VALID,0.53559,
2004-06-15, 03:11:00,VALID,917.926,VALID,0,VALID,96.6508,VALID,0,VALID,17.1023,VALID,62,VALID,0.403832,
2004-06-15, 03:12:00,VALID,917.93,VALID,0,VALID,97.3159,VALID,0.0339617,VALID,17.0668,VALID,62,VALID,0.134411,
2004-06-15, 03:13:00,VALID,917.912,VALID,0,VALID,97.7559,VALID,0,VALID,17.0414,VALID,62,VALID,0.014881,
2004-06-15, 03:14:00,VALID,917.882,VALID,0,VALID,98.6587,VALID,0,VALID,17.0762,VALID,62,VALID,0.229959,
2004-06-15, 03:15:00,VALID,917.881,VALID,0,VALID,98.7426,VALID,0,VALID,17.1481,VALID,62,VALID,0.273438,
2004-06-15, 03:16:00,VALID,917.875,VALID,0,VALID,97.9225,VALID,0,VALID,17.096,VALID,62,VALID,0.0610795,
2004-06-15, 03:17:00,VALID,917.882,VALID,0,VALID,97.4685,VALID,0,VALID,16.9863,VALID,62,VALID,0.0799006,
2004-06-15, 03:18:00,VALID,917.878,VALID,0,VALID,97.41,VALID,0.0169808,VALID,16.9248,VALID,62,VALID,0.0647321,
2004-06-15, 03:19:00,VALID,917.891,VALID,0,VALID,97.6656,VALID,-0.0169808,VALID,16.8768,VALID,62,VALID,0.034157,
2004-06-15, 03:20:00,VALID,917.895,VALID,0,VALID,98.6193,VALID,0,VALID,16.9024,VALID,62,VALID,0.261632,
2004-06-15, 03:21:00,VALID,917.881,VALID,0,VALID,99.367,VALID,0,VALID,17.0024,VALID,62,VALID,0.0822173,
2004-06-15, 03:22:00,VALID,917.854,VALID,0,VALID,99.6442,VALID,0,VALID,17.1059,VALID,62,VALID,0.0473958,
2004-06-15, 03:23:00,VALID,917.822,VALID,0,VALID,99.3517,VALID,0.0169808,VALID,17.1961,VALID,97,VALID,0.604288,
2004-06-15, 03:24:00,VALID,917.825,VALID,0,VALID,99.0567,VALID,0.0169808,VALID,17.2417,VALID,128,VALID,0.603743,
2004-06-15, 03:25:00,VALID,917.828,VALID,0,VALID,98.9436,VALID,0.0339617,VALID,17.3316,VALID,117,VALID,0.390447,
2004-06-15, 03:26:00,VALID,917.825,VALID,0,VALID,98.379,VALID,0.0169808,VALID,17.4058,VALID,117,VALID,0.0585938,
2004-06-15, 03:27:00,VALID,917.792,VALID,0,VALID,97.1862,VALID,0,VALID,17.3998,VALID,117,VALID,0.0494792,
2004-06-15, 03:28:00,VALID,917.773,VALID,0,VALID,96.1727,VALID,0,VALID,17.2963,VALID,117,VALID,0.503815,
2004-06-15, 03:29:00,VALID,917.786,VALID,0,VALID,96.9064,VALID,-0.0169808,VALID,17.2445,VALID,117,VALID,0.327217,
2004-06-15, 03:30:00,VALID,917.775,VALID,0,VALID,97.5384,VALID,0.0509425,VALID,17.2735,VALID,117,VALID,0.287997,
2004-06-15, 03:31:00,VALID,917.772,VALID,0,VALID,97.4583,VALID,0.0169808,VALID,17.2864,VALID,117,VALID,0.260831,
2004-06-15, 03:32:00,VALID,917.794,VALID,0,VALID,97.6707,VALID,0,VALID,17.2957,VALID,117,VALID,0.196875,
2004-06-15, 03:33:00,VALID,917.798,VALID,0,VALID,97.7228,VALID,0.0169808,VALID,17.3441,VALID,117,VALID,0,